Weather History for Willmar, MN

Change the Weather History Date:

Monday, April 1, 2013

  Actual Average (KLJF) Record (KLJF)
Temperature  
Mean Temperature 27 °F -  
Max Temperature 33 °F 48 °F 75 °F (1963)
Min Temperature 21 °F 26 °F -1 °F (1975)
Degree Days  
Heating Degree Days 38    
Moisture  
Dew Point 11 °F    
Average Humidity 51    
Maximum Humidity 59    
Minimum Humidity 41    
Precipitation  
Precipitation 0.00 in - - ()
Sea Level Pressure  
Sea Level Pressure 30.26 in    
Wind  
Wind Speed 15 mph (NW)    
Max Wind Speed 21 mph    
Max Gust Speed 24 mph    
Visibility 10 miles    
Events      
Averages and records for this station are not official NWS values.
T = Trace of Precipitation, MM = Missing Value Source: NWS Daily Summary

Daily Weather History Graph

Daily Weather History Graph

Search for Another Location

Airport:

Trip Planner

Search our weather history database for the weather conditions in past years. The results will help you decide how hot, cold, wet, or windy it might be!

Date:

Astronomy

Apr. 01, 2013 Rise Set
Actual Time 7:00 AM CDT 7:48 PM CDT
Civil Twilight 6:30 AM CDT 8:18 PM CDT
Nautical Twilight 5:55 AM CDT 8:54 PM CDT
Astronomical Twilight 5:18 AM CDT 9:31 PM CDT
Moon 1:09 AM CDT (4/1) 10:36 AM CDT (4/1)
Length of Visible Light 13h 47m
Length of Day
12h 48m
Waning Gibbous, 67% of the Moon is Illuminated
Apr 1
Waning Gibbous
Apr 2
Last Quarter
Apr 10
New
Apr 18
First Quarter
Apr 25
Full

Hourly Weather History & Observations

Time (CDT) Temp. Windchill Dew Point Humidity Pressure Visibility Wind Dir Wind Speed Gust Speed Precip Events Conditions
12:15 AM 24.8 °F 11.5 °F 10.4 °F 54% 30.17 in 10.0 mi NW 17.3 mph 24.2 mph N/A   Clear
12:35 AM 24.8 °F 11.9 °F 10.4 °F 54% 30.18 in 10.0 mi NNW 16.1 mph - N/A   Clear
12:55 AM 24.8 °F 11.1 °F 10.4 °F 54% 30.18 in 10.0 mi NNW 18.4 mph - N/A   Clear
1:15 AM 24.8 °F 10.3 °F 10.4 °F 54% 30.18 in 10.0 mi NW 20.7 mph - N/A   Clear
1:35 AM 24.8 °F 11.9 °F 10.4 °F 54% 30.18 in 10.0 mi NNW 16.1 mph - N/A   Clear
1:55 AM 24.8 °F 12.4 °F 8.6 °F 50% 30.19 in 10.0 mi NNW 15.0 mph - N/A   Clear
2:15 AM 24.8 °F 11.1 °F 8.6 °F 50% 30.19 in 10.0 mi NW 18.4 mph - N/A   Clear
2:35 AM 23.0 °F 9.2 °F 8.6 °F 54% 30.19 in 10.0 mi NNW 17.3 mph 21.9 mph N/A   Clear
2:55 AM 23.0 °F 9.6 °F 8.6 °F 54% 30.19 in 10.0 mi NW 16.1 mph - N/A   Clear
3:15 AM 23.0 °F 9.2 °F 8.6 °F 54% 30.20 in 10.0 mi NW 17.3 mph - N/A   Clear
3:35 AM 23.0 °F 10.6 °F 8.6 °F 54% 30.20 in 10.0 mi NW 13.8 mph - N/A   Clear
3:55 AM 23.0 °F 10.1 °F 8.6 °F 54% 30.20 in 10.0 mi NW 15.0 mph - N/A   Clear
4:15 AM 21.2 °F 7.3 °F 8.6 °F 58% 30.21 in 10.0 mi NW 16.1 mph - N/A   Clear
4:35 AM 21.2 °F 7.8 °F 8.6 °F 58% 30.21 in 10.0 mi NW 15.0 mph - N/A   Clear
4:55 AM 21.2 °F 8.3 °F 8.6 °F 58% 30.22 in 10.0 mi NW 13.8 mph - N/A   Clear
5:15 AM 21.2 °F 8.3 °F 8.6 °F 58% 30.22 in 10.0 mi NW 13.8 mph - N/A   Clear
5:35 AM 21.2 °F 10.1 °F 8.6 °F 58% 30.23 in 10.0 mi NW 10.4 mph 13.8 mph N/A   Clear
5:55 AM 21.2 °F 8.9 °F 8.6 °F 58% 30.23 in 10.0 mi NW 12.7 mph - N/A   Clear
6:15 AM 21.2 °F 7.8 °F 8.6 °F 58% 30.24 in 10.0 mi NW 15.0 mph - N/A   Clear
6:35 AM 21.2 °F 8.3 °F 8.6 °F 58% 30.25 in 10.0 mi NW 13.8 mph - N/A   Clear
6:55 AM 21.2 °F 7.3 °F 8.6 °F 58% 30.25 in 10.0 mi NW 16.1 mph - N/A   Clear
7:15 AM 21.2 °F 7.3 °F 8.6 °F 58% 30.26 in 10.0 mi NW 16.1 mph 19.6 mph N/A   Clear
7:35 AM 21.2 °F 7.8 °F 8.6 °F 58% 30.26 in 10.0 mi NNW 15.0 mph - N/A   Clear
7:55 AM 21.2 °F 6.8 °F 8.6 °F 58% 30.27 in 10.0 mi NNW 17.3 mph - N/A   Clear
8:15 AM 23.0 °F 8.7 °F 8.6 °F 54% 30.27 in 10.0 mi NNW 18.4 mph - N/A   Clear
8:35 AM 23.0 °F 8.3 °F 8.6 °F 54% 30.27 in 10.0 mi NNW 19.6 mph - N/A   Clear
8:55 AM 24.8 °F 11.5 °F 8.6 °F 50% 30.28 in 10.0 mi NW 17.3 mph - N/A   Clear
9:15 AM 24.8 °F 12.4 °F 8.6 °F 50% 30.28 in 10.0 mi NNW 15.0 mph - N/A   Clear
9:35 AM 26.6 °F 14.7 °F 8.6 °F 47% 30.29 in 10.0 mi NW 15.0 mph - N/A   Clear
9:55 AM 26.6 °F 14.3 °F 8.6 °F 47% 30.29 in 10.0 mi WNW 16.1 mph - N/A   Clear
10:15 AM 26.6 °F 15.2 °F 8.6 °F 47% 30.30 in 10.0 mi NW 13.8 mph - N/A   Clear
10:36 AM 26.6 °F 14.3 °F 8.6 °F 47% 30.30 in 10.0 mi NW 16.1 mph - N/A   Clear
11:15 AM 28.4 °F 16.6 °F 10.4 °F 47% 30.30 in 10.0 mi NNW 16.1 mph 19.6 mph N/A   Clear
11:35 AM 28.4 °F 17.5 °F 10.4 °F 47% 30.30 in 10.0 mi WNW 13.8 mph - N/A   Scattered Clouds
11:55 AM 28.4 °F 17.0 °F 10.4 °F 47% 30.31 in 10.0 mi NW 15.0 mph 19.6 mph N/A   Scattered Clouds
12:15 PM 28.4 °F 17.0 °F 10.4 °F 47% 30.31 in 10.0 mi NW 15.0 mph 18.4 mph N/A   Scattered Clouds
12:36 PM 30.2 °F 19.3 °F 10.4 °F 44% 30.31 in 10.0 mi NNW 15.0 mph - N/A   Clear
1:15 PM 30.2 °F 18.9 °F 12.2 °F 47% 30.30 in 10.0 mi WNW 16.1 mph 21.9 mph N/A   Clear
1:36 PM 30.2 °F 18.9 °F 12.2 °F 47% 30.30 in 10.0 mi NW 16.1 mph 23.0 mph N/A   Clear
1:55 PM 32.0 °F 21.2 °F 12.2 °F 44% 30.30 in 10.0 mi NW 16.1 mph 24.2 mph N/A   Clear
2:15 PM 32.0 °F 21.2 °F 14.0 °F 48% 30.30 in 10.0 mi NW 16.1 mph 21.9 mph N/A   Clear
2:35 PM 33.8 °F 23.5 °F 12.2 °F 41% 30.29 in 10.0 mi NW 16.1 mph - N/A   Clear
2:55 PM 33.8 °F 23.5 °F 15.8 °F 48% 30.29 in 10.0 mi NW 16.1 mph 19.6 mph N/A   Clear
3:15 PM 33.8 °F 23.9 °F 15.8 °F 48% 30.30 in 10.0 mi NW 15.0 mph - N/A   Clear
3:35 PM 33.8 °F 23.2 °F 14.0 °F 44% 30.29 in 10.0 mi NW 17.3 mph 20.7 mph N/A   Clear
3:55 PM 33.8 °F 23.9 °F 15.8 °F 48% 30.29 in 10.0 mi NW 15.0 mph 19.6 mph N/A   Clear
4:15 PM 33.8 °F 23.9 °F 14.0 °F 44% 30.29 in 10.0 mi NW 15.0 mph 19.6 mph N/A   Clear
4:35 PM 33.8 °F 24.8 °F 14.0 °F 44% 30.29 in 10.0 mi WNW 12.7 mph - N/A   Clear
4:55 PM 33.8 °F 23.5 °F 14.0 °F 44% 30.29 in 10.0 mi WNW 16.1 mph - N/A   Clear
5:15 PM 33.8 °F 23.9 °F 14.0 °F 44% 30.29 in 10.0 mi WNW 15.0 mph 19.6 mph N/A   Clear
5:35 PM 33.8 °F 24.3 °F 14.0 °F 44% 30.29 in 10.0 mi WNW 13.8 mph - N/A   Clear
5:55 PM 33.8 °F 24.8 °F 15.8 °F 48% 30.28 in 10.0 mi NW 12.7 mph - N/A   Clear
6:15 PM 33.8 °F 23.5 °F 15.8 °F 48% 30.28 in 10.0 mi NW 16.1 mph - N/A   Clear
6:35 PM 33.8 °F 25.3 °F 15.8 °F 48% 30.28 in 10.0 mi NW 11.5 mph - N/A   Clear
6:55 PM 32.0 °F 22.5 °F 14.0 °F 48% 30.28 in 10.0 mi NW 12.7 mph - N/A   Clear
7:15 PM 32.0 °F 23.0 °F 14.0 °F 48% 30.27 in 10.0 mi NW 11.5 mph - N/A   Clear
7:35 PM 30.2 °F 21.3 °F 14.0 °F 51% 30.27 in 10.0 mi NW 10.4 mph - N/A   Clear
7:55 PM 30.2 °F 20.8 °F 12.2 °F 47% 30.27 in 10.0 mi NW 11.5 mph - N/A   Clear
8:15 PM 30.2 °F 20.2 °F 12.2 °F 47% 30.27 in 10.0 mi NW 12.7 mph - N/A   Clear
8:35 PM 30.2 °F 20.2 °F 14.0 °F 51% 30.27 in 10.0 mi NW 12.7 mph - N/A   Clear
8:55 PM 30.2 °F 21.3 °F 15.8 °F 55% 30.27 in 10.0 mi NW 10.4 mph - N/A   Clear
9:15 PM 28.4 °F 18.0 °F 14.0 °F 55% 30.28 in 10.0 mi NW 12.7 mph - N/A   Clear
9:35 PM 28.4 °F 19.1 °F 15.8 °F 59% 30.28 in 10.0 mi NW 10.4 mph - N/A   Clear
9:55 PM 28.4 °F 19.1 °F 12.2 °F 51% 30.29 in 10.0 mi NW 10.4 mph - N/A   Clear
10:15 PM 28.4 °F 19.1 °F 14.0 °F 55% 30.29 in 10.0 mi NW 10.4 mph - N/A   Clear
10:35 PM 28.4 °F 19.1 °F 15.8 °F 59% 30.29 in 10.0 mi WNW 10.4 mph - N/A   Clear
10:55 PM 28.4 °F 19.7 °F 14.0 °F 55% 30.29 in 10.0 mi NW 9.2 mph - N/A   Clear
11:15 PM 28.4 °F 20.4 °F 14.0 °F 55% 30.29 in 10.0 mi NW 8.1 mph - N/A   Clear
11:35 PM 28.4 °F 21.2 °F 14.0 °F 55% 30.28 in 10.0 mi WNW 6.9 mph - N/A   Clear
11:55 PM 28.4 °F 22.2 °F 14.0 °F 55% 30.28 in 10.0 mi WNW 5.8 mph - N/A   Clear